Regional Weather Roundup
Issued by NWS Sioux Falls, SD

Home | Current Version | Previous Version | Text Only | Print | Product List | Glossary On
Versions: 1 2 3 4 5 6 7 8 9 10 11 12 13 14 15 16 17 18 19 20 21 22 23 24 25 26 27 28 29 30 31 32 33 34 35 36 37 38 39 40 41 42 43 44 45 46 47 48 49 50
000
ASUS43 KFSD 062310
RWRFSD

WEATHER ROUNDUP FOR SE SOUTH DAKOTA/SW MINNESOTA/NW IOWA
NATIONAL WEATHER SERVICE SIOUX FALLS SD
500 PM CST FRI MAR 06 2015

NOTE: "FAIR" INDICATES FEW OR NO CLOUDS BELOW 12,000 FEET WITH NO
SIGNIFICANT WEATHER AND OR OBSTRUCTIONS TO VISIBILITY.


SDZ038>040-050-052>070-070000-
SOUTHEAST SOUTH DAKOTA

CITY           SKY/WX    TMP DP  RH WIND       PRES   REMARKS
CHAMBERLAIN    MOSUNNY   53  23  31 W7        30.06F
HURON          PTSUNNY   42  21  43 CALM      30.08F
MADISON        FAIR      39  23  52 NW9       30.09S
MITCHELL       SUNNY     47  20  34 CALM      30.09F
SIOUX FALLS    MOSUNNY   45  23  42 NW10      30.09F
WINNER         FAIR      56  20  24 W12       30.07F
YANKTON        SUNNY     52  19  28 N8        30.10F
$$

MNZ071-072-080-081-089-090-097-098-070000-
SOUTHWEST MINNESOTA

CITY           SKY/WX    TMP DP  RH WIND       PRES   REMARKS
FAIRMONT       PTSUNNY   39  25  56 NW12      30.08S
JACKSON        CLOUDY    41  27  56 NW9       30.08S
LUVERNE        SUNNY     43  28  56 NW8       30.10S
MARSHALL       SUNNY     37  19  48 NW10      30.11S
MONTEVIDEO     SUNNY     36  21  55 N7        30.10F
REDWOOD FALLS  MOSUNNY   36  19  50 NW9       30.09S
TRACY          SUNNY     38  23  54 NW9       30.09S
WINDOM         PTSUNNY   37  25  60 NW9       30.08S
WORTHINGTON    MOSUNNY   37  25  60 W13       30.10S
$$

IAZ001>003-012>014-020>022-031-032-NEZ013-014-SDZ071-070000-
NORTHWEST IOWA

CITY           SKY/WX    TMP DP  RH WIND       PRES   REMARKS
CHEROKEE       PTSUNNY   49  25  39 NW7       30.10S
DENISON        MOSUNNY   54  25  32 NW12      30.07F
ESTHERVILLE    PTSUNNY   41  29  62 W13       30.08R
LE MARS        MOSUNNY   52  23  32 NW10      30.11S
ORANGE CITY    MOSUNNY   48  21  34 NW8       30.09F
SHELDON        PTSUNNY   45  27  49 NW10      30.08F
SIOUX CITY     MOSUNNY   56  21  25 N12       30.09F
SPENCER        PTSUNNY   45  26  47 NW10      30.10R
STORM LAKE     PTSUNNY   48  30  49 NW8G14    30.09S
$$

ABBREVIATIONS USED IN REMARKS
   TC - TEMPERATURE IN CELSIUS
  WCI - WIND CHILL INDEX
   HX - HEAT INDEX
  VSB - VISIBILITY



USA.gov is the U.S. government's official web portal to all federal, state and local government web resources and services.